Hourly Data Report for October 28, 2013

All times are specified in Local Standard Time (LST). Add 1 hour to adjust for Daylight Saving Time where and when it is observed.

PETAWAWA AWOS 2
ONTARIO

45°57'00.000" N
77°19'00.000" W
130.10 m
6106396
71625
YWA

Download Data

Hourly Data (October 2013)
Hourly Data Report for October 28, 2013
Temp Definition
°C
Dew Point Temp Definition
°C
Rel Hum Definition
%
Wind Dir Definition
10's deg

Wind Spd Definition
km/h
Visibility Definition
km
Stn Press Definition
kPa
Hmdx Definition


Wind Chill Definition


Weather Definition


TIME
00:00 4.0 0.2 76 14 7 15.0 99.70      
01:00 4.6 0.9 77 13 4 15.0 99.67     Rain
02:00 3.3 2.4 94   0 15.0 99.64     Rain
03:00 4.3 2.7 89 24 9 14.5 99.66     Rain
04:00 4.1 3.0 93 27 17 15.0 99.76     Rain
05:00 3.6 0.8 82 30 20 15.0 99.98      
06:00 2.0 -1.1 80 31 20 9.7 100.21      
07:00 1.1 -3.7 70 30 17 15.0 100.42      
08:00 0.8 -5.4 63 30 19 15.0 100.69      
09:00 0.4 -5.2 66 30 20 15.0 100.85      
10:00 1.3 -6.0 58 32 28 15.0 100.99      
11:00 1.1 -5.7 60 31 22 15.0 101.12     Snow
12:00 2.3 -5.4 57 34 24 15.0 101.14      
13:00 2.7 -5.7 54 32 19 15.0 101.17      
14:00 2.7 -5.7 54 33 17 15.0 101.18      
15:00 3.9 -5.1 52 28 17 15.0 101.24      
16:00 3.4 -5.3 53 29 11 15.0 101.30      
17:00 2.4 -5.6 55 31 13 15.0 101.32      
18:00 2.1 -5.1 59 27 6 15.0 101.39      
19:00 1.9 -5.9 56 27 7 15.0 101.43      
20:00 0.6 -6.3 60 29 7 15.0 101.44      
21:00 -0.8 -6.3 66 30 9 15.0 101.46   -4  
22:00 -1.1 -6.1 69 29 6 15.0 101.49   -3  
23:00 -1.7 -5.7 74 28 7 15.0 101.49   -4  

Notes on Data Quality.

Legend

  • E = Estimated
  • M = Missing
  • NA = Not Available
  • ‡ = Partner data that is not subject to review by the National Climate Archives
Date modified: